Regional Weather Roundup
Issued by NWS

Home | Current Version | Previous Version | Graphics & Text | Print | Product List | Glossary On
Versions: 1 2 3 4 5 6 7 8 9 10 11 12 13 14 15 16 17 18 19 20 21 22 23 24 25 26 27
000
ASUS45 KBOU 230707
RWRCO

WEATHER ROUNDUP FOR COLORADO
NATIONAL WEATHER SERVICE DENVER/BOULDER CO
100 AM MDT MON OCT 23 2017

NOTE: "FAIR" INDICATES FEW OR NO CLOUDS BELOW 12000 FEET WITH NO
SIGNIFICANT WEATHER AND/OR OBSTRUCTIONS TO VISIBILITY.

COZ001>005-013-030-031-230800-
...NORTHWEST COLORADO...

CITY           SKY/WX    TMP DP  RH WIND       PRES   REMARKS
CRAIG          CLOUDY    47  27  45 W8        30.40R
HAYDEN         CLOUDY    48  27  44 N5        30.42R
MEEKER         FAIR      35  29  78 NE5       30.43S WCI  31
RABBIT EARS PA CLOUDY    32  27  80 W17G32    30.48R WCI  21
STEAMBOAT SPGS CLOUDY    45  30  57 SE6       30.40R
WALDEN         NOT AVBL
$$

COZ006>008-011-230800-
...WEST CENTRAL VALLEYS...

CITY           SKY/WX    TMP DP  RH WIND       PRES   REMARKS
GRAND JUNCTION FAIR      45  21  38 SE8       30.40F
MONTROSE       FAIR      38  24  57 SE7       30.47S
EAGLE          MOCLDY    38  27  64 E8        30.45F
RIFLE          FAIR      37  30  75 CALM      30.44F
DELTA          FAIR      43  21  41 NE8       30.44S
NUCLA          FAIR      43  19  39 E12       30.47F
$$

COZ017>023-064>068-230800-
...SOUTHWEST COLORADO...

CITY           SKY/WX    TMP DP  RH WIND       PRES   REMARKS
DURANGO        FAIR      36  21  54 CALM      30.41F
CORTEZ         FAIR      34  20  56 NE7       30.43F WCI  28
PAGOSA SPRINGS FAIR      35  19  50 CALM      30.46S
TELLURIDE      FAIR      38  18  44 CALM      30.58S
WOLF CREEK PAS FAIR      37  21  52 W9G18     30.65F
$$

COZ009-010-012-014-032>034-037-058>063-230800-
...CENTRAL COLORADO...

CITY           SKY/WX    TMP DP  RH WIND       PRES   REMARKS
ASPEN          FAIR      32  27  81 SW8       30.50R WCI  25
BUENA VISTA    FAIR      51  19  29 NW21G32   30.37S
COPPER MTN     MOCLDY    34  23  64 MISG      30.56F
BERTHOUD PASS  FAIR      28  18  64 NW46G68   30.48R WCI  10
COTTONWOOD PAS FAIR      48  21  34 W23G40    30.43S
GUNNISON       FAIR      34  20  56 CALM      30.49S
KREMMLING      FAIR      52  23  32 W9        30.42R
LEADVILLE      FAIR      37  17  44 N13G20    30.50R
MONARCH PASS   FAIR      30  18  59 W47G53    30.63R WCI  12
SALIDA         FAIR      50  20  30 NW6       30.41F
SUNLIGHT       FAIR      32  19  59 SW10G17   30.60F WCI  24
WILKERSON PASS FAIR      36  21  55 NW16G29   30.48R
$$

COZ069>075-230800-
...SAN LUIS VALLEY/SANGRE DE CRISTO MOUNTAINS...

CITY           SKY/WX    TMP DP  RH WIND       PRES   REMARKS
ALAMOSA        FAIR      27  19  72 SW5       30.41F WCI  22
DEL NORTE      FAIR      34  17  51 W9        30.42F WCI  26
LA VETA PASS   FAIR      39  18  41 SW22G30   30.57S
SAGUACHE       FAIR      37  21  52 N9        30.43F
$$

COZ035-036-038>040-230800-
...NORTHERN COLORADO FRONT RANGE...

CITY           SKY/WX    TMP DP  RH WIND       PRES   REMARKS
DENVER INTL AP FAIR      61  24  24 NW18G25   30.14F
DMNS CITY PARK   N/A     63  23  22 N12G18    30.15S
AURORA         PTCLDY    58  27  29 NW14      30.17S
FRONT RANGE AP FAIR      61  28  29 NW10G30   30.16S
ERIE MUNI ARPT FAIR      59  23  25 NE3       30.19F
BOULDER MUN AP FAIR      57  27  30 E3        30.15S
CENTENNIAL     FAIR      61  25  25 W3        30.17S
BROOMFIELD     FAIR      61  25  25 W16G30    30.19S
FORT COLLINS   FAIR      50  30  46 VRB6      30.14S
LONGMONT       NOT AVBL
$$

COZ041-046-047-076>085-087-088-230800-
...PIKES PEAK/PALMER DIVIDE AND SOUTHERN FOOTHILLS...

CITY           SKY/WX    TMP DP  RH WIND       PRES   REMARKS
COLO. SPRINGS  FAIR      52  27  38 N9        30.21F
A. F. ACADEMY  FAIR      58  23  26 N15G21    30.22R
SCHRIEVER AFB  FAIR      51  23  34 N6        30.21F
CHEYENNE MTN   FAIR      61  22  22 NW16G32   30.18F
ELLICOTT         N/A    N/A N/A N/A CALM      30.19F
FALCON         FAIR      54  23  30 NW13      30.25R
FORT CARSON    FAIR      50  23  35 E3        30.18S
LIMON          FAIR      35  27  72 NW5       30.17R WCI  31
MONUMENT HILL  FAIR      43  27  52 W5        30.26R
CANON CITY     FAIR      55  27  33 W8        30.20S
WALSENBURG     NOT AVBL
TRINIDAD       FAIR      52  26  36 SE6       30.20R
$$

COZ042>045-048>051-090-091-230800-
...NORTHEAST COLORADO...

CITY           SKY/WX    TMP DP  RH WIND       PRES   REMARKS
GREELEY ARPT   FAIR      45  31  58 CALM      30.15R
AKRON          FAIR      50  27  40 W12       30.11R
BURLINGTON     FAIR      43  28  55 W8        30.10R
WRAY           NOT AVBL
YUMA           NOT AVBL
STERLING       FAIR      59  32  36 NW14      30.08R
HOLYOKE        FAIR      45  32  61 W6        30.06R
FORT MORGAN    FAIR      52  27  37 N14       30.13R
$$

COZ086-089-092>099-230800-
...SOUTHEAST COLORADO...

CITY           SKY/WX    TMP DP  RH WIND       PRES   REMARKS
PUEBLO         FAIR      60  23  24 NW10      30.13S
LA JUNTA       FAIR      47  30  51 W12       30.12S
LAMAR          FAIR      38  29  70 SW5       30.07F
SPRINGFIELD      N/A     48  31  51 NW7       30.11R
$$




USA.gov is the U.S. government's official web portal to all federal, state and local government web resources and services.